Weather History for Minden, LA

Change the Weather History Date:

Saturday, October 6, 2012

  Actual Average (KBAD) Record (KBAD)
Temperature  
Mean Temperature 60 °F -  
Max Temperature 69 °F 75 °F 90 °F (2007)
Min Temperature 48 °F 56 °F 42 °F (2010)
Degree Days  
Heating Degree Days 4    
Growing Degree Days 10 (Base 50)    
Moisture  
Dew Point 48 °F    
Average Humidity 78    
Maximum Humidity 85    
Minimum Humidity 71    
Precipitation  
Precipitation 0.00 in - - ()
Sea Level Pressure  
Sea Level Pressure 30.13 in    
Wind  
Wind Speed 6 mph ()    
Max Wind Speed 13 mph    
Max Gust Speed 20 mph    
Visibility 9.9 miles    
Events Rain    
Averages and records for this station are not official NWS values.
T = Trace of Precipitation, MM = Missing Value Source: Averaged Metar Reports

Daily Weather History Graph

Daily Weather History Graph

Search for Another Location

Airport:

Trip Planner

Search our weather history database for the weather conditions in past years. The results will help you decide how hot, cold, wet, or windy it might be!

Date:

Astronomy

Oct. 06, 2012 Rise Set
Actual Time 7:11 AM CDT 6:50 PM CDT
Civil Twilight 6:46 AM CDT 7:15 PM CDT
Nautical Twilight 6:17 AM CDT 7:43 PM CDT
Astronomical Twilight 5:49 AM CDT 8:12 PM CDT
Moon 11:21 PM CDT (10/6) 12:51 PM CDT (10/6)
Length of Visible Light 12h 28m
Length of Day
11h 39m
Waning Gibbous, 65% of the Moon is Illuminated
Oct 6
Waning Gibbous
Oct 8
Last Quarter
Oct 15
New
Oct 21
First Quarter
Oct 29
Full

Hourly Weather History & Observations

Time (CDT) Temp. Dew Point Humidity Pressure Visibility Wind Dir Wind Speed Gust Speed Precip Events Conditions
12:15 AM 73.4 °F 67.1 °F 81% 30.03 in 10.0 mi NNW 6.9 mph - N/A   Mostly Cloudy
12:35 AM 71.8 °F 66.2 °F 83% 30.04 in 10.0 mi North 12.7 mph - N/A   Mostly Cloudy
12:55 AM 69.8 °F 64.4 °F 83% 30.04 in 10.0 mi North 10.4 mph - N/A   Overcast
1:15 AM 69.3 °F 64.4 °F 84% 30.04 in 10.0 mi North 8.1 mph - N/A   Overcast
1:35 AM 69.1 °F 64.4 °F 85% 30.04 in 10.0 mi North 8.1 mph - N/A   Overcast
1:55 AM 68.2 °F 63.3 °F 84% 30.05 in 10.0 mi NNE 6.9 mph 16.1 mph N/A   Overcast
2:15 AM 65.8 °F 60.4 °F 83% 30.07 in 10.0 mi NNE 8.1 mph - N/A   Overcast
2:35 AM 64.2 °F 58.3 °F 81% 30.06 in 10.0 mi NE 6.9 mph - N/A   Overcast
2:55 AM 63.1 °F 57.2 °F 81% 30.07 in 10.0 mi NNE 10.4 mph - N/A   Overcast
3:15 AM 61.3 °F 55.8 °F 82% 30.07 in 10.0 mi NNE 5.8 mph 19.6 mph N/A   Overcast
3:35 AM 60.4 °F 54.9 °F 82% 30.07 in 10.0 mi NNE 4.6 mph - N/A   Overcast
3:55 AM 59.9 °F 54.3 °F 82% 30.07 in 10.0 mi North 4.6 mph - N/A   Overcast
4:15 AM 59.5 °F 54.1 °F 82% 30.07 in 10.0 mi NNE 5.8 mph - N/A   Overcast
4:35 AM 59.2 °F 53.6 °F 82% 30.08 in 10.0 mi NE 6.9 mph - N/A   Overcast
4:55 AM 58.6 °F 52.2 °F 79% 30.09 in 10.0 mi NE 6.9 mph - N/A   Overcast
5:15 AM 57.7 °F 50.9 °F 78% 30.10 in 10.0 mi NNE 8.1 mph - N/A   Overcast
5:35 AM 57.6 °F 50.5 °F 77% 30.11 in 10.0 mi NE 3.5 mph - N/A   Overcast
5:55 AM 57.4 °F 50.2 °F 77% 30.11 in 10.0 mi NE 8.1 mph - N/A   Overcast
6:15 AM 57.2 °F 50.4 °F 78% 30.12 in 10.0 mi NE 3.5 mph - N/A   Overcast
6:35 AM 56.5 °F 49.5 °F 77% 30.12 in 10.0 mi NE 6.9 mph - N/A   Overcast
6:55 AM 55.9 °F 48.6 °F 76% 30.12 in 10.0 mi NE 3.5 mph 16.1 mph N/A   Overcast
7:15 AM 55.8 °F 49.1 °F 78% 30.13 in 10.0 mi NNE 3.5 mph - N/A   Overcast
7:35 AM 55.4 °F 49.3 °F 80% 30.14 in 10.0 mi NE 5.8 mph - N/A   Overcast
7:55 AM 54.9 °F 47.8 °F 77% 30.14 in 10.0 mi NE 10.4 mph 17.3 mph N/A   Overcast
8:15 AM 54.5 °F 47.3 °F 77% 30.15 in 10.0 mi ENE 8.1 mph - N/A   Overcast
8:35 AM 53.8 °F 47.1 °F 78% 30.15 in 10.0 mi NE 6.9 mph 16.1 mph N/A   Overcast
8:55 AM 53.6 °F 47.3 °F 79% 30.16 in 10.0 mi NE 6.9 mph - N/A   Overcast
9:15 AM 53.8 °F 47.1 °F 78% 30.16 in 10.0 mi NE 9.2 mph - N/A   Overcast
9:35 AM 54.0 °F 46.9 °F 77% 30.16 in 10.0 mi NE 3.5 mph - N/A   Overcast
9:55 AM 53.6 °F 46.8 °F 78% 30.16 in 10.0 mi ENE 3.5 mph - N/A   Overcast
10:15 AM 53.1 °F 47.5 °F 81% 30.16 in 10.0 mi North 5.8 mph - N/A   Overcast
10:35 AM 52.9 °F 47.8 °F 83% 30.17 in 10.0 mi North 5.8 mph - N/A   Overcast
10:55 AM 52.3 °F 47.8 °F 85% 30.16 in 7.0 mi NNE 5.8 mph - N/A   Overcast
11:15 AM 52.0 °F 47.5 °F 85% 30.16 in 7.0 mi NNE 3.5 mph - N/A   Overcast
11:35 AM 52.7 °F 47.5 °F 82% 30.16 in 10.0 mi North 4.6 mph - N/A   Overcast
11:55 AM 53.1 °F 46.6 °F 79% 30.16 in 10.0 mi NE 4.6 mph - N/A   Overcast
12:15 PM 53.8 °F 46.2 °F 76% 30.16 in 10.0 mi NNE 4.6 mph - N/A   Overcast
12:35 PM 53.2 °F 45.7 °F 76% 30.16 in 10.0 mi NNE 4.6 mph - N/A   Overcast
12:55 PM 53.6 °F 45.5 °F 74% 30.15 in 10.0 mi NNE 3.5 mph - N/A   Overcast
1:15 PM 53.6 °F 45.0 °F 73% 30.15 in 10.0 mi NNE 5.8 mph - N/A   Overcast
1:35 PM 54.0 °F 45.5 °F 73% 30.14 in 10.0 mi NNE 5.8 mph - N/A   Overcast
1:55 PM 53.8 °F 45.1 °F 73% 30.14 in 10.0 mi NNE 5.8 mph - N/A   Overcast
2:15 PM 53.8 °F 45.1 °F 73% 30.14 in 10.0 mi North 3.5 mph - N/A   Overcast
2:35 PM 54.1 °F 45.3 °F 72% 30.13 in 10.0 mi NNE 4.6 mph - N/A   Overcast
2:55 PM 54.0 °F 45.5 °F 73% 30.12 in 10.0 mi North 6.9 mph - N/A   Overcast
3:15 PM 53.6 °F 45.3 °F 74% 30.12 in 10.0 mi NNE 4.6 mph - N/A   Overcast
3:35 PM 53.8 °F 45.0 °F 72% 30.13 in 10.0 mi North 8.1 mph 16.1 mph N/A   Overcast
3:55 PM 53.6 °F 44.8 °F 72% 30.13 in 10.0 mi North 6.9 mph - N/A   Overcast
4:15 PM 53.6 °F 44.4 °F 71% 30.13 in 10.0 mi NNE 6.9 mph - N/A   Overcast
4:35 PM 53.6 °F 44.8 °F 72% 30.13 in 10.0 mi NNE 4.6 mph - N/A   Overcast
4:55 PM 52.9 °F 44.4 °F 73% 30.12 in 10.0 mi North 5.8 mph - N/A   Overcast
5:15 PM 52.5 °F 44.1 °F 73% 30.12 in 10.0 mi North 4.6 mph - N/A   Overcast
5:35 PM 52.2 °F 43.9 °F 73% 30.13 in 10.0 mi NNE 6.9 mph - N/A   Overcast
6:15 PM 51.8 °F 43.7 °F 74% 30.14 in 10.0 mi NNE 5.8 mph - N/A   Overcast
6:35 PM 51.6 °F 43.5 °F 74% 30.15 in 10.0 mi NNE 3.5 mph - N/A   Overcast
6:55 PM 51.3 °F 43.3 °F 74% 30.16 in 10.0 mi NNE 5.8 mph - N/A   Overcast
7:15 PM 50.9 °F 42.8 °F 74% 30.16 in 10.0 mi NNE 6.9 mph - N/A   Overcast
7:35 PM 50.4 °F 42.3 °F 74% 30.17 in 10.0 mi NNE 6.9 mph - N/A   Overcast
7:55 PM 50.0 °F 42.6 °F 76% 30.18 in 10.0 mi North 10.4 mph - N/A   Overcast
8:15 PM 49.1 °F 42.3 °F 77% 30.19 in 10.0 mi NNE 4.6 mph - N/A   Overcast
8:35 PM 48.7 °F 42.8 °F 80% 30.18 in 10.0 mi NNE 5.8 mph - N/A   Overcast
8:55 PM 48.4 °F 42.8 °F 81% 30.19 in 10.0 mi North 5.8 mph - N/A   Overcast
9:15 PM 48.2 °F 43.0 °F 82% 30.19 in 10.0 mi ENE 5.8 mph - N/A Rain Light Rain
9:35 PM 48.2 °F 41.9 °F 79% 30.19 in 10.0 mi ENE 5.8 mph - N/A   Overcast
9:55 PM 48.2 °F 41.9 °F 79% 30.20 in 10.0 mi NNE 4.6 mph - N/A   Overcast
10:15 PM 48.2 °F 41.9 °F 79% 30.21 in 10.0 mi North 5.8 mph - N/A   Overcast
10:35 PM 48.2 °F 42.3 °F 80% 30.20 in 10.0 mi Calm Calm - N/A   Overcast
10:55 PM 48.2 °F 41.9 °F 79% 30.20 in 10.0 mi North 5.8 mph - N/A   Overcast
11:15 PM 48.4 °F 42.1 °F 79% 30.21 in 10.0 mi North 4.6 mph - N/A   Overcast
11:35 PM 48.4 °F 41.9 °F 78% 30.22 in 10.0 mi North 8.1 mph - N/A   Overcast
11:55 PM 48.6 °F 41.9 °F 78% 30.22 in 10.0 mi North 9.2 mph - N/A   Overcast